Location: Newark
(47.5833°N, 8.1500°E)
Time: 08:47:25
(UTC+00:00)

Altair - Pass Details

Date: 01 November 2020
Orbit: 1502 x 1682 km, 47.2° (Epoch: 25 November)

Event Time Altitude Azimuth Distance (km) Brightness Sun altitude
Exits shadow 02:19:55 28° 152° (SSE) 2,549 8.6 -39.0°
Maximum altitude 02:21:38 30° 134° (SE) 2,481 8.6 -38.7°
Drops below altitude 10° 02:29:18 10° 79° (E) 3,735 10.2 -37.5°
Sets 02:32:53 0° 69° (ENE) 4,748 11.0 -36.9°
